[[{"header":{"parameterUnit":"m.s-1","parameterCategory":2,"la1":30.2991,"la2":30.254,"lo1":-89.0895,"lo2":-89.0444,"dy":0.0017,"dx":0.0017,"nx":28,"ny":28,"refTime":"2025-01-15T03:00:00:Z","depth":"0","parameterNumber":2,"parameterNumberName":"U-component_of_CURRENTS"},"data":[0,0,0,0,0,0,0,0,0,0,0,0,0,0,0,0,0,0,0,0,0,0,0,0,0,0,0,0,0,0,0,0,0,0,0,0,0,0,0,0,0,0,0,0,0,0,0,0,0,0,0,0,0,0,0,0,0,0,0.3768,0.3765,0,0.3621,0.362,0.3619,0.3575,0.3574,0.3574,0.3573,0.3406,0.3402,0.3398,0,0,0,0,0,0,0,0,0,0,0,0,0,0.4083,0.4078,0.3768,0.3765,0.3762,0.3621,0.362,0.3619,0.3575,0.3574,0.3574,0.3573,0.3407,0.3403,0.3398,0,0,0,0,0,0,0,0,0,0,0,0,0,0.3954,0.4076,0.3769,0.3714,0.3706,0.3621,0.362,0.3619,0.3575,0.3574,0.3574,0.3573,0.3409,0.3403,0.3397,0.3373,0,0,0.3379,0.3376,0,0,0,0,0,0,0,0,0.3961,0.3944,0.3725,0.3717,0.3708,0.3604,0.3669,0.3531,0.3575,0.3638,0.3573,0.3573,0.3462,0.3452,0.3444,0.3365,0.3358,0.3378,0.3374,0.3372,0.337,0,0,0,0,0,0,0,0.397,0.395,0.3723,0.3721,0.3711,0.3719,0.3701,0.3644,0.3566,0.3633,0.3626,0.3589,0.346,0.3451,0.344,0.3355,0.3378,0.3373,0.3369,0.3367,0.328,0.3282,0,0,0,0,0,0,0.3958,0.3958,0.3727,0.3717,0.3821,0.3713,0.3693,0.3649,0.3566,0.355,0.359,0.3587,0.3461,0.3447,0.3434,0.3437,0.3372,0.3366,0.3363,0.3279,0.3281,0.3282,0,0,0,0,0,0,0.3966,0.3939,0.3733,0.3825,0.3798,0.3706,0.3658,0.3646,0.3635,0.3532,0.3517,0.359,0.346,0.3442,0.3384,0.3428,0.3363,0.3358,0.3278,0.328,0.3281,0.3418,0,0,0,0,0,0,0.3975,0.3943,0.3948,0.3824,0.3791,0.3695,0.3657,0.3643,0.3607,0.3603,0.3526,0.351,0.3458,0.3394,0.3378,0.3418,0.3353,0.3276,0.3278,0.3281,0.3412,0.3424,0.3435,0,0,0,0,0,0.3987,0.3985,0.3949,0.3922,0.3787,0.3694,0.3682,0.3624,0.3608,0.3613,0.3553,0.3513,0.34,0.3389,0.3371,0.341,0.3275,0.3278,0.3281,0.3407,0.3422,0.3435,0,0,0,0,0,0,0.4123,0.3974,0.3934,0.3886,0.3801,0.3682,0.3685,0.3632,0.3593,0.3584,0.3509,0.3489,0.3467,0.3411,0.3401,0.3394,0.3339,0.3338,0.3441,0.3455,0.3466,0.3484,0.3348,0,0,0,0,0,0.4151,0.4114,0.3968,0.3937,0.3897,0.3796,0.3763,0.3699,0.3623,0.3606,0.3562,0.3508,0.3467,0.3436,0.3395,0.337,0.3337,0.339,0.3402,0.3412,0.3415,0.3398,0.3409,0.3292,0.3292,0.3292,0,0,0.4184,0.4108,0.4081,0.3966,0.3904,0.3842,0.378,0.3711,0.3694,0.3591,0.3598,0.3545,0.3469,0.3458,0.3444,0.3413,0.3434,0.3416,0.3426,0.3422,0.3402,0.3414,0.3424,0.3294,0.3294,0.3294,0,0,0.4209,0.4173,0.4131,0.4058,0.3942,0.3896,0.3875,0.3764,0.3767,0.3727,0.3669,0.3628,0.3576,0.353,0.3497,0.354,0.3501,0.3549,0.3614,0.3599,0.3608,0.3616,0.3618,0.3624,0.355,0.355,0.355,0,0.4248,0.4156,0.4113,0.404,0.3982,0.3921,0.3849,0.3855,0.3754,0.3765,0.3748,0.3675,0.361,0.3578,0.3605,0.3567,0.3564,0.3569,0.3616,0.3622,0.3628,0.3627,0.3633,0.3557,0.3556,0.3556,0.3555,0,0.421,0.4132,0.4108,0.4007,0.3983,0.39,0.3867,0.3891,0.3894,0.3874,0.3873,0.3792,0.3741,0.3734,0.368,0.3696,0.3685,0.3639,0.3584,0.3648,0.3643,0.3647,0.3567,0.3565,0.3563,0.3561,0,0,0.419,0.4096,0.4063,0.4015,0.3929,0.3895,0.3939,0.3931,0.3967,0.3951,0.3977,0.3923,0.3894,0.3853,0.3789,0.3777,0.382,0.3744,0.374,0.3754,0.3819,0.3703,0.3695,0.3799,0.38,0.38,0.381,0,0.4122,0.403,0.3992,0.391,0.3848,0.3847,0.3901,0.3924,0.3972,0.4021,0.3993,0.3986,0.3941,0.3908,0.3901,0.3827,0.3833,0.3823,0.3746,0.3743,0.3639,0.3695,0.3486,0.3467,0.3813,0.3813,0.3814,0,0.4012,0.3972,0.3909,0.3856,0.3834,0.3821,0.39,0.3922,0.4018,0.4055,0.4071,0.4065,0.4045,0.3997,0.3945,0.3952,0.3909,0.3863,0.3861,0.3701,0.3632,0.3451,0.346,0.3323,0.3818,0.3818,0.3817,0,0.4,0.3871,0.3858,0.382,0.3805,0.3819,0.383,0.3928,0.3969,0.4068,0.4098,0.411,0.4082,0.4053,0.398,0.3974,0.3932,0.3893,0.3757,0.3749,0.3524,0.3493,0.3386,0.3876,0.3876,0.3876,0.3876,0,0.3906,0.384,0.385,0.3824,0.3815,0.3812,0.3837,0.3895,0.396,0.4008,0.409,0.4112,0.41,0.4083,0.4024,0.3901,0.3963,0.3779,0.374,0.3567,0.3542,0.337,0.3358,0.3876,0.3876,0.3876,0.3876,0,0.3857,0.3856,0.3812,0.3814,0.3803,0.3809,0.3786,0.3828,0.3903,0.3965,0.3992,0.4104,0.4097,0.4074,0.4014,0.3916,0.3691,0.3771,0.3581,0.3518,0.3231,0.3235,0.3026,0.2947,0.3617,0.3614,0.3612,0,0.3814,0.3806,0.3824,0.3803,0.3781,0.3761,0.3767,0.3808,0.3838,0.3947,0.3976,0.4029,0.4086,0.398,0.3803,0.3684,0.359,0.3401,0.3324,0.3191,0.3169,0.3099,0.3044,0.3102,0.3095,0.309,0.3086,0,0.3725,0.3777,0.3787,0.3754,0.3741,0.3732,0.3712,0.3734,0.3814,0.3858,0.3943,0.4007,0.3935,0.3732,0.3563,0.3443,0.3203,0.3287,0.3182,0.2786,0.2667,0.2578,0.3153,0.3039,0.3044,0.3047,0.305,0.3051,0.3666,0.3685,0.3719,0.3678,0.3666,0.3687,0.3663,0.3664,0.3695,0.37,0.382,0.3785,0.3593,0.3336,0.3216,0.2768,0.2891,0.2586,0.2618,0.2571,0.2427,0.2913,0.2728,0.273,0.2733,0.2735,0.2737,0,0.3599,0.3637,0.3598,0.3593,0.3549,0.3581,0.3614,0.3566,0.3558,0.353,0.3528,0.3253,0.2993,0.2771,0.2295,0.2108,0.2029,0.2006,0.1859,0.1855,0.2286,0.2192,0.1839,0.1839,0.1839,0.1839,0.184,0.184,0.3566,0.3573,0.3577,0.3472,0.3451,0.3408,0.3432,0.3366,0.33,0.3036,0.2818,0.2745,0.2474,0.2042,0.1652,0.1587,0.1482,0.1371,0.1465,0.1756,0.1812,0.1866,0.177,0.1335,0.1334,0.0892,0.0889,0.0886]},{"header":{"parameterUnit":"m.s-1","parameterCategory":2,"la1":30.2991,"la2":30.254,"lo1":-89.0895,"lo2":-89.0444,"dy":0.0017,"dx":0.0017,"nx":28,"ny":28,"refTime":"2025-01-15T03:00:00:Z","depth":"0","parameterNumber":3,"parameterNumberName":"V-component_of_CURRENTS"},"data":[0,0,0,0,0,0,0,0,0,0,0,0,0,0,0,0,0,0,0,0,0,0,0,0,0,0,0,0,0,0,0,0,0,0,0,0,0,0,0,0,0,0,0,0,0,0,0,0,0,0,0,0,0,0,0,0,0,0,-0.0765,-0.0762,0,-0.0572,-0.0571,-0.057,-0.0505,-0.0504,-0.0504,-0.0503,-0.0453,-0.0452,-0.0451,0,0,0,0,0,0,0,0,0,0,0,0,0,-0.1227,-0.1219,-0.0765,-0.0761,-0.0758,-0.0572,-0.0571,-0.057,-0.0505,-0.0504,-0.0504,-0.0503,-0.0453,-0.0452,-0.0451,0,0,0,0,0,0,0,0,0,0,0,0,0,-0.1043,-0.1216,-0.0766,-0.0692,-0.0682,-0.0572,-0.0571,-0.0569,-0.0505,-0.0504,-0.0503,-0.0503,-0.0453,-0.0452,-0.0451,-0.046,0,0,-0.0447,-0.0446,0,0,0,0,0,0,0,0,-0.1053,-0.1028,-0.0707,-0.0697,-0.0686,-0.0549,-0.0714,-0.0535,-0.0505,-0.0588,-0.0503,-0.0502,-0.0489,-0.0485,-0.0469,-0.0458,-0.0455,-0.0447,-0.0446,-0.0446,-0.0445,0,0,0,0,0,0,0,-0.1066,-0.1036,-0.0704,-0.0702,-0.0689,-0.0718,-0.0692,-0.0681,-0.056,-0.0581,-0.0572,-0.0527,-0.0486,-0.0471,-0.0468,-0.0455,-0.0447,-0.0446,-0.0445,-0.0444,-0.0414,-0.0414,0,0,0,0,0,0,-0.1051,-0.1047,-0.0709,-0.0696,-0.0855,-0.0709,-0.068,-0.0606,-0.0556,-0.0542,-0.0528,-0.0524,-0.0473,-0.0469,-0.0466,-0.0433,-0.0446,-0.0444,-0.0444,-0.0414,-0.0414,-0.0414,0,0,0,0,0,0,-0.1062,-0.1022,-0.0717,-0.0859,-0.082,-0.0699,-0.0618,-0.0602,-0.0574,-0.0512,-0.0504,-0.0513,-0.0472,-0.0467,-0.0432,-0.0433,-0.0444,-0.0443,-0.0414,-0.0414,-0.0414,-0.0395,0,0,0,0,0,0,-0.1075,-0.1027,-0.1029,-0.0856,-0.081,-0.0657,-0.0617,-0.0598,-0.054,-0.0535,-0.0497,-0.0491,-0.0471,-0.0434,-0.0431,-0.0431,-0.0442,-0.0414,-0.0414,-0.0414,-0.0396,-0.0394,-0.0393,0,0,0,0,0,-0.1092,-0.1099,-0.1029,-0.0991,-0.0795,-0.0655,-0.0638,-0.0562,-0.0541,-0.0536,-0.049,-0.0492,-0.0432,-0.0432,-0.0428,-0.0429,-0.0414,-0.0414,-0.0414,-0.0396,-0.0395,-0.0393,0,0,0,0,0,0,-0.1323,-0.1085,-0.1007,-0.0946,-0.0803,-0.0639,-0.0647,-0.0564,-0.0524,-0.0523,-0.048,-0.0471,-0.0444,-0.0441,-0.0442,-0.0422,-0.0429,-0.0428,-0.0417,-0.0415,-0.0414,-0.0404,-0.0441,0,0,0,0,0,-0.136,-0.1295,-0.1062,-0.1023,-0.095,-0.0794,-0.0747,-0.0653,-0.0561,-0.0542,-0.0507,-0.0477,-0.0444,-0.0431,-0.0413,-0.0398,-0.0378,-0.0401,-0.04,-0.0399,-0.0389,-0.0339,-0.0331,-0.0413,-0.0413,-0.0413,0,0,-0.1436,-0.1304,-0.1268,-0.1069,-0.0965,-0.0834,-0.0769,-0.0667,-0.0588,-0.0547,-0.0502,-0.0473,-0.0439,-0.0412,-0.0403,-0.0407,-0.0369,-0.0398,-0.0397,-0.0388,-0.0338,-0.0329,-0.0322,-0.0413,-0.0413,-0.0413,0,0,-0.1507,-0.1429,-0.1358,-0.1216,-0.1016,-0.0918,-0.0876,-0.0689,-0.0656,-0.0575,-0.0526,-0.0477,-0.0455,-0.0402,-0.0378,-0.0361,-0.0363,-0.0384,-0.0366,-0.0318,-0.031,-0.0303,-0.0281,-0.0272,-0.0384,-0.0384,-0.0384,0,-0.1604,-0.1435,-0.1333,-0.1188,-0.1069,-0.0941,-0.0798,-0.0754,-0.0591,-0.0567,-0.0569,-0.0472,-0.044,-0.0366,-0.0355,-0.0355,-0.0345,-0.0371,-0.0314,-0.0306,-0.0299,-0.0278,-0.0268,-0.0383,-0.0383,-0.0383,-0.0383,0,-0.1547,-0.1405,-0.1362,-0.1121,-0.1027,-0.0889,-0.0739,-0.0707,-0.0662,-0.0584,-0.0526,-0.0468,-0.0405,-0.0394,-0.0365,-0.0301,-0.0317,-0.0315,-0.0313,-0.0289,-0.027,-0.026,-0.0382,-0.0382,-0.0382,-0.0382,0,0,-0.168,-0.1374,-0.1338,-0.1187,-0.0943,-0.0843,-0.078,-0.0647,-0.0609,-0.0542,-0.0483,-0.0413,-0.0389,-0.0359,-0.0317,-0.0267,-0.0204,-0.0275,-0.0273,-0.0246,-0.0122,-0.0126,-0.0116,-0.0199,-0.0197,-0.0195,-0.0133,0,-0.1615,-0.1378,-0.1229,-0.0999,-0.0838,-0.0712,-0.0661,-0.0566,-0.0534,-0.049,-0.0445,-0.0385,-0.0378,-0.0338,-0.0289,-0.0201,-0.0176,-0.0222,-0.0156,-0.0154,-0.0153,-0.0103,-0.0053,0.0007,-0.0123,-0.0122,-0.0121,0,-0.1517,-0.1368,-0.1158,-0.0874,-0.0799,-0.0688,-0.0577,-0.0493,-0.0448,-0.0433,-0.0388,-0.0364,-0.0265,-0.0284,-0.015,-0.0185,-0.0165,-0.012,-0.0117,-0.0117,-0.0138,-0.0036,0.003,-0.0025,-0.0105,-0.0106,-0.0108,0,-0.1603,-0.1273,-0.1136,-0.1019,-0.075,-0.068,-0.0562,-0.0489,-0.0425,-0.0393,-0.0359,-0.0288,-0.0219,-0.0171,-0.0088,-0.0121,0.004,0.0007,0.0008,0.0006,0.0067,0.0068,0.0101,0.0057,0.0057,0.0057,0.0057,0,-0.1525,-0.1361,-0.1164,-0.1056,-0.0886,-0.0708,-0.057,-0.0495,-0.04,-0.0301,-0.0322,-0.0239,-0.0189,-0.0103,-0.0068,0.0026,0.0053,0.0028,0.0036,0.0071,0.0071,0.0039,-0.0009,0.0059,0.0059,0.0058,0.0058,0,-0.154,-0.1421,-0.1219,-0.099,-0.0896,-0.0786,-0.0498,-0.0423,-0.0363,-0.0238,-0.0222,-0.0168,-0.0041,-0.0001,0.011,0.0077,0.0135,0.0152,0.0176,0.0184,0.0105,0.0055,0.0092,0.0068,0.0161,0.0162,0.0162,0,-0.1473,-0.1409,-0.1208,-0.1077,-0.0932,-0.0729,-0.0587,-0.0436,-0.0326,-0.0165,-0.0098,0.0002,0.014,0.0262,0.0247,0.0292,0.0206,0.0262,0.0208,0.0126,0.0077,0.0027,0.0,0.0291,0.0292,0.0293,0.0294,0,-0.1351,-0.1371,-0.1252,-0.1015,-0.0841,-0.0645,-0.0406,-0.0329,-0.0163,-0.0028,0.0174,0.0293,0.0372,0.0477,0.0443,0.0422,0.0227,0.0282,0.022,0.0204,0.0136,0.0108,0.0193,0.0305,0.0304,0.0303,0.0302,0.0302,-0.1285,-0.1235,-0.113,-0.088,-0.0697,-0.0519,-0.035,-0.0127,0.0082,0.0363,0.0411,0.0692,0.0673,0.0678,0.0577,0.0365,0.0331,0.0298,0.0251,0.0212,0.0175,0.0259,0.0359,0.0358,0.0357,0.0357,0.0356,0,-0.117,-0.112,-0.0916,-0.0686,-0.0457,-0.0395,-0.018,-0.0003,0.0294,0.0583,0.0842,0.1064,0.1018,0.0856,0.0573,0.0389,0.0284,0.0272,0.0226,0.0203,0.0321,0.031,0.0378,0.0378,0.0378,0.0378,0.0378,0.0378,-0.1121,-0.0977,-0.0894,-0.0488,-0.0299,-0.0064,0.0044,0.03,0.0557,0.1019,0.13,0.146,0.1342,0.0805,0.044,0.0333,0.019,0.0167,0.0075,0.0159,0.0157,0.0156,0.0136,0.0166,0.0165,-0.0005,-0.0006,-0.0008]}],[{"header":{"parameterUnit":"m.s-1","parameterCategory":2,"la1":30.2991,"la2":30.254,"lo1":-89.0895,"lo2":-89.0444,"dy":0.0017,"dx":0.0017,"nx":28,"ny":28,"refTime":"2025-01-15T03:00:00:Z","depth":"2","parameterNumber":2,"parameterNumberName":"U-component_of_CURRENTS"},"data":[0,0,0,0,0,0,0,0,0,0,0,0,0,0,0,0,0,0,0,0,0,0,0,0,0,0,0,0,0,0,0,0,0,0,0,0,0,0,0,0,0,0,0,0,0,0,0,0,0,0,0,0,0,0,0,0,0,0,0.2014,0.2013,0,0.194,0.1939,0.1939,0.1951,0.1951,0.1952,0.1953,0.1978,0.1978,0.1977,0,0,0,0,0,0,0,0,0,0,0,0,0,0.1993,0.1995,0.2014,0.2013,0.2012,0.194,0.1939,0.1939,0.195,0.1952,0.1953,0.1954,0.1978,0.1978,0.1977,0,0,0,0,0,0,0,0,0,0,0,0,0,0.1973,0.1995,0.2015,0.2005,0.2004,0.194,0.1939,0.1939,0.195,0.1952,0.1953,0.1954,0.1978,0.1978,0.1977,0.195,0,0,0.1977,0.1977,0,0,0,0,0,0,0,0,0.1975,0.1975,0.2008,0.2006,0.2004,0.1952,0.194,0.1946,0.195,0.1975,0.1953,0.1955,0.1974,0.1974,0.1963,0.1952,0.1953,0.1977,0.1977,0.1977,0.1976,0,0,0,0,0,0,0,0.1976,0.1977,0.199,0.2006,0.2004,0.1945,0.1946,0.1941,0.1974,0.1973,0.1973,0.1957,0.1975,0.1963,0.1964,0.1953,0.1977,0.1977,0.1976,0.1976,0.1969,0.1969,0,0,0,0,0,0,0.1984,0.198,0.1992,0.1987,0.1987,0.1945,0.1946,0.1971,0.1972,0.1971,0.1956,0.1957,0.1963,0.1964,0.1965,0.2028,0.1977,0.1976,0.1976,0.1969,0.1969,0.1969,0,0,0,0,0,0,0.1985,0.1988,0.1995,0.1975,0.1971,0.1945,0.1972,0.1969,0.1977,0.1957,0.1959,0.197,0.1964,0.1965,0.1981,0.2026,0.1976,0.1976,0.1969,0.1969,0.1969,0.2094,0,0,0,0,0,0,0.1986,0.199,0.2022,0.1977,0.1973,0.197,0.197,0.1966,0.1962,0.1964,0.1969,0.1971,0.1965,0.1981,0.1981,0.2024,0.1976,0.1969,0.1969,0.1969,0.209,0.2098,0.2105,0,0,0,0,0,0.1986,0.1982,0.2025,0.2026,0.2016,0.197,0.1963,0.1949,0.1962,0.1964,0.1974,0.1972,0.1979,0.1981,0.198,0.2026,0.1969,0.1969,0.1969,0.2086,0.2096,0.2105,0,0,0,0,0,0,0.2025,0.1982,0.2028,0.2031,0.2024,0.1971,0.1952,0.1959,0.1965,0.1993,0.1975,0.1977,0.2008,0.1983,0.1984,0.2015,0.1972,0.1972,0.2061,0.2071,0.2078,0.2087,0.1976,0,0,0,0,0,0.2047,0.2021,0.2012,0.2027,0.2016,0.2002,0.1987,0.2002,0.1988,0.1993,0.1989,0.1991,0.1999,0.201,0.2004,0.2022,0.2008,0.2043,0.2051,0.2058,0.206,0.2075,0.2086,0.1968,0.1968,0.1968,0,0,0.2071,0.2043,0.204,0.203,0.2019,0.2019,0.1997,0.1993,0.2008,0.1996,0.2011,0.2021,0.2006,0.2034,0.2045,0.2027,0.2084,0.2058,0.2065,0.2063,0.2077,0.2089,0.2099,0.1968,0.1968,0.1968,0,0,0.2073,0.2085,0.2067,0.2061,0.2056,0.204,0.2048,0.203,0.2033,0.2057,0.2057,0.21,0.2081,0.2102,0.2104,0.2143,0.2122,0.2129,0.2189,0.2205,0.2216,0.2225,0.2236,0.2245,0.2138,0.2138,0.2138,0,0.2122,0.2111,0.206,0.2058,0.2046,0.2054,0.2064,0.2063,0.2066,0.2075,0.2079,0.2105,0.2119,0.2159,0.2187,0.217,0.2158,0.2169,0.222,0.2229,0.2237,0.2245,0.2253,0.2144,0.2143,0.2143,0.2142,0,0.2125,0.2131,0.2108,0.211,0.2094,0.2098,0.2093,0.2132,0.2145,0.2136,0.2177,0.2199,0.221,0.2236,0.2235,0.2293,0.2261,0.2233,0.2211,0.2257,0.2261,0.2268,0.2153,0.215,0.2149,0.2147,0,0,0.2155,0.2124,0.2114,0.2128,0.2126,0.2107,0.2155,0.2165,0.2192,0.2225,0.2241,0.2301,0.2305,0.2306,0.2318,0.2361,0.2439,0.2329,0.2328,0.2364,0.2465,0.2367,0.2364,0.2417,0.2418,0.2419,0.2453,0,0.2179,0.217,0.2143,0.2153,0.214,0.2177,0.2188,0.222,0.2233,0.2253,0.23,0.2317,0.232,0.2363,0.2397,0.2431,0.2458,0.2431,0.2392,0.2391,0.2319,0.237,0.2169,0.2174,0.246,0.2461,0.2462,0,0.216,0.215,0.2151,0.2152,0.2151,0.218,0.2215,0.2237,0.2281,0.2312,0.2357,0.2344,0.2432,0.2418,0.2488,0.2465,0.2467,0.2491,0.2491,0.2357,0.2304,0.2167,0.2176,0.2473,0.2472,0.2471,0.247,0,0.2109,0.2133,0.2122,0.2129,0.2148,0.2192,0.2227,0.2262,0.2283,0.2359,0.2391,0.2428,0.2471,0.2499,0.2531,0.2516,0.2586,0.2562,0.2467,0.246,0.2258,0.223,0.2587,0.2587,0.2587,0.2586,0.2586,0,0.2072,0.2066,0.2119,0.2104,0.2143,0.2164,0.2199,0.228,0.2343,0.2345,0.2399,0.2429,0.2492,0.2512,0.2539,0.2524,0.2582,0.2486,0.2465,0.2294,0.227,0.2492,0.248,0.2588,0.2587,0.2587,0.2587,0,0.1997,0.2014,0.2012,0.2065,0.2102,0.2129,0.2223,0.2238,0.2331,0.2361,0.2398,0.2456,0.2499,0.2524,0.2582,0.2522,0.2544,0.251,0.2305,0.2258,0.2405,0.24,0.242,0.2417,0.2414,0.2412,0.241,0,0.196,0.1946,0.1991,0.1998,0.2033,0.2098,0.2124,0.2241,0.2255,0.2359,0.2355,0.2423,0.2404,0.2448,0.2416,0.2416,0.249,0.2197,0.2134,0.2412,0.2391,0.2389,0.2387,0.1926,0.1921,0.1916,0.1912,0,0.1892,0.1901,0.1861,0.1939,0.1968,0.2001,0.2065,0.2091,0.2179,0.2213,0.2237,0.225,0.2266,0.2163,0.216,0.2137,0.2189,0.2099,0.245,0.1992,0.1947,0.1926,0.194,0.1871,0.1875,0.1878,0.1881,0.1882,0.1809,0.1795,0.1787,0.1839,0.1874,0.1905,0.188,0.1927,0.1948,0.1954,0.2039,0.1984,0.1989,0.1879,0.1823,0.1782,0.1943,0.1839,0.1853,0.1873,0.1802,0.1754,0.1629,0.1631,0.1634,0.1636,0.1637,0,0.1704,0.172,0.174,0.1734,0.1726,0.1835,0.182,0.1754,0.1718,0.1747,0.1736,0.1553,0.1486,0.1525,0.1391,0.1368,0.1361,0.131,0.1291,0.1333,0.137,0.1273,0.096,0.0958,0.0956,0.0954,0,0,0.1641,0.1585,0.1612,0.1595,0.1627,0.1581,0.1548,0.1467,0.1443,0.1377,0.1327,0.1406,0.1457,0.1186,0.1149,0.1035,0.1175,0.0984,0.1528,0.1548,0.1583,0.1677,0.1575,0,0,0,0,0]},{"header":{"parameterUnit":"m.s-1","parameterCategory":2,"la1":30.2991,"la2":30.254,"lo1":-89.0895,"lo2":-89.0444,"dy":0.0017,"dx":0.0017,"nx":28,"ny":28,"refTime":"2025-01-15T03:00:00:Z","depth":"2","parameterNumber":3,"parameterNumberName":"V-component_of_CURRENTS"},"data":[0,0,0,0,0,0,0,0,0,0,0,0,0,0,0,0,0,0,0,0,0,0,0,0,0,0,0,0,0,0,0,0,0,0,0,0,0,0,0,0,0,0,0,0,0,0,0,0,0,0,0,0,0,0,0,0,0,0,0.0424,0.0424,0,0.051,0.0511,0.0512,0.0548,0.0548,0.0547,0.0547,0.0501,0.05,0.0499,0,0,0,0,0,0,0,0,0,0,0,0,0,0.0428,0.0427,0.0424,0.0424,0.0425,0.051,0.0511,0.0513,0.0548,0.0547,0.0547,0.0546,0.0501,0.05,0.0499,0,0,0,0,0,0,0,0,0,0,0,0,0,0.0464,0.0426,0.0423,0.045,0.0454,0.0509,0.0511,0.0513,0.0548,0.0547,0.0547,0.0546,0.0501,0.05,0.0499,0.0507,0,0,0.0496,0.0495,0,0,0,0,0,0,0,0,0.0462,0.0464,0.0446,0.0449,0.0452,0.0514,0.0496,0.0503,0.0548,0.0516,0.0547,0.0546,0.0491,0.0491,0.0516,0.0505,0.0503,0.0496,0.0495,0.0494,0.0494,0,0,0,0,0,0,0,0.0459,0.0461,0.0461,0.0447,0.045,0.0505,0.0509,0.0499,0.0507,0.0519,0.0521,0.0525,0.0493,0.0517,0.0514,0.0502,0.0496,0.0495,0.0494,0.0493,0.0499,0.05,0,0,0,0,0,0,0.0435,0.0458,0.0458,0.0463,0.0451,0.0505,0.0509,0.0498,0.051,0.0511,0.0526,0.0526,0.0519,0.0516,0.0513,0.0502,0.0494,0.0493,0.0493,0.0498,0.0499,0.05,0,0,0,0,0,0,0.0434,0.0433,0.0455,0.0461,0.0467,0.0504,0.0493,0.05,0.0518,0.0516,0.0515,0.0535,0.0519,0.0514,0.0499,0.0501,0.0493,0.0492,0.0497,0.0499,0.05,0.0492,0,0,0,0,0,0,0.0434,0.0432,0.0419,0.0459,0.0466,0.0489,0.0493,0.0502,0.0521,0.0523,0.0523,0.0519,0.0518,0.05,0.0498,0.0499,0.0491,0.0496,0.0498,0.0499,0.0492,0.0493,0.0495,0,0,0,0,0,0.0433,0.0459,0.0417,0.0418,0.0444,0.0489,0.0499,0.0527,0.0522,0.0539,0.0529,0.0519,0.0509,0.05,0.0496,0.0497,0.0495,0.0497,0.0499,0.0491,0.0493,0.0495,0,0,0,0,0,0,0.0455,0.0464,0.0421,0.0441,0.0444,0.0494,0.051,0.0523,0.0535,0.0515,0.0519,0.0515,0.0509,0.0506,0.0496,0.0508,0.0505,0.0506,0.05,0.0502,0.0503,0.0522,0.049,0,0,0,0,0,0.0442,0.0473,0.0454,0.0473,0.0451,0.0467,0.0486,0.0493,0.0509,0.0515,0.0532,0.0528,0.0519,0.0509,0.0513,0.0506,0.0501,0.0511,0.0512,0.0513,0.0529,0.0518,0.052,0.0506,0.0506,0.0506,0,0,0.0462,0.0469,0.0484,0.0481,0.0471,0.0477,0.0478,0.0494,0.0532,0.0502,0.0558,0.0533,0.052,0.0522,0.0519,0.0514,0.0512,0.0516,0.0516,0.0532,0.052,0.0521,0.0522,0.0508,0.0507,0.0507,0,0,0.0504,0.0491,0.0493,0.0494,0.047,0.0495,0.0491,0.0515,0.0542,0.0574,0.0556,0.053,0.0557,0.0538,0.0528,0.0539,0.0523,0.0542,0.0556,0.0544,0.0545,0.0545,0.0522,0.0521,0.0538,0.0538,0.0538,0,0.0502,0.0502,0.0507,0.0491,0.051,0.0496,0.0497,0.0533,0.0574,0.06,0.0592,0.06,0.0571,0.055,0.0549,0.0541,0.0531,0.0542,0.0544,0.0545,0.0546,0.0522,0.052,0.0538,0.0538,0.0538,0.0538,0,0.0555,0.0512,0.0519,0.05,0.0532,0.0541,0.056,0.0602,0.0632,0.0665,0.0674,0.0632,0.0636,0.0611,0.0578,0.0562,0.0551,0.0547,0.0534,0.0546,0.052,0.0519,0.0538,0.0538,0.0538,0.0538,0,0,0.0599,0.0558,0.054,0.0516,0.0534,0.0572,0.0628,0.0678,0.0729,0.0738,0.0789,0.0735,0.0702,0.0687,0.0625,0.0593,0.0559,0.0567,0.0567,0.0535,0.0527,0.0505,0.05,0.0552,0.0552,0.0552,0.0499,0,0.0596,0.0586,0.0587,0.0592,0.0576,0.0609,0.0688,0.0745,0.0798,0.0855,0.0789,0.0807,0.0735,0.0708,0.0663,0.0589,0.0559,0.0574,0.053,0.0529,0.0499,0.05,0.0512,0.0466,0.0498,0.0498,0.0497,0,0.0625,0.0606,0.062,0.0623,0.0622,0.0651,0.0778,0.0849,0.0912,0.0945,0.0927,0.0901,0.0827,0.0776,0.0663,0.0675,0.0611,0.0551,0.0548,0.0535,0.0505,0.0465,0.0462,0.0495,0.0495,0.0495,0.0495,0,0.0721,0.063,0.0668,0.0674,0.0696,0.0719,0.0757,0.0858,0.0941,0.0987,0.1031,0.0958,0.0916,0.0828,0.0698,0.0687,0.0584,0.0561,0.0484,0.048,0.0489,0.0487,0.0512,0.0512,0.0513,0.0513,0.0513,0,0.0788,0.0766,0.068,0.0722,0.0729,0.0754,0.0847,0.0888,0.097,0.1071,0.1055,0.1082,0.0931,0.0858,0.0736,0.0599,0.0619,0.0492,0.0471,0.0485,0.0483,0.0515,0.0516,0.0511,0.0511,0.0512,0.0512,0,0.089,0.0849,0.0847,0.0818,0.0784,0.0811,0.0853,0.0952,0.1019,0.1138,0.1153,0.1156,0.1071,0.0925,0.0768,0.0653,0.0526,0.0481,0.0497,0.0479,0.0419,0.042,0.0391,0.039,0.0389,0.0388,0.0387,0,0.0929,0.0962,0.0928,0.0902,0.0856,0.0864,0.0913,0.0968,0.1071,0.1194,0.125,0.1205,0.1199,0.0958,0.0748,0.0546,0.0522,0.0427,0.041,0.0427,0.0409,0.0412,0.0414,0.0408,0.0408,0.0407,0.0407,0,0.0997,0.1023,0.1061,0.098,0.0961,0.1022,0.1051,0.1111,0.1244,0.1324,0.1408,0.1401,0.1206,0.0995,0.0721,0.0586,0.0455,0.0413,0.0437,0.0439,0.044,0.0423,0.0426,0.0404,0.0404,0.0405,0.0405,0.0405,0.1048,0.1079,0.1116,0.1034,0.1057,0.1146,0.1217,0.1278,0.1407,0.1504,0.149,0.1456,0.1252,0.0877,0.0664,0.0427,0.0449,0.0355,0.0358,0.0361,0.0374,0.0374,0.0327,0.0327,0.0327,0.0327,0.0327,0,0.1096,0.113,0.1112,0.1117,0.1199,0.1169,0.131,0.1395,0.1506,0.1527,0.156,0.1335,0.1127,0.0877,0.0537,0.0354,0.034,0.0278,0.0309,0.0314,0.0318,0.033,0.027,0.0269,0.0269,0.0268,0,0,0.1118,0.1168,0.1154,0.1199,0.1235,0.1373,0.1465,0.1531,0.1555,0.1537,0.1469,0.1418,0.1147,0.0884,0.0649,0.0453,0.0418,0.0406,0.0475,0.0546,0.0552,0.0389,0.0417,0,0,0,0,0]}],[{"header":{"parameterUnit":"m.s-1","parameterCategory":2,"la1":30.2991,"la2":30.254,"lo1":-89.0895,"lo2":-89.0444,"dy":0.0017,"dx":0.0017,"nx":28,"ny":28,"refTime":"2025-01-15T03:00:00:Z","depth":"4","parameterNumber":2,"parameterNumberName":"U-component_of_CURRENTS"},"data":[0,0,0,0,0,0,0,0,0,0,0,0,0,0,0,0,0,0,0,0,0,0,0,0,0,0,0,0,0,0,0,0,0,0,0,0,0,0,0,0,0,0,0,0,0,0,0,0,0,0,0,0,0,0,0,0,0,0,0.0721,0.0723,0,0.0817,0.0817,0.0818,0.0843,0.0843,0.0843,0.0843,0.0955,0.0958,0.096,0,0,0,0,0,0,0,0,0,0,0,0,0,0.0512,0.0515,0.0721,0.0723,0.0725,0.0817,0.0817,0.0818,0.0843,0.0843,0.0843,0.0843,0.0954,0.0957,0.0961,0,0,0,0,0,0,0,0,0,0,0,0,0,0.0598,0.0516,0.0721,0.0754,0.0758,0.0817,0.0817,0.0818,0.0843,0.0843,0.0843,0.0843,0.0953,0.0957,0.0961,0.0985,0,0,0.0974,0.0976,0,0,0,0,0,0,0,0,0.0593,0.0604,0.0747,0.0752,0.0757,0.0825,0.0785,0.0877,0.0843,0.0803,0.0843,0.0843,0.0918,0.0925,0.0931,0.099,0.0995,0.0975,0.0977,0.0979,0.098,0,0,0,0,0,0,0,0.0587,0.06,0.0751,0.0749,0.0755,0.0748,0.076,0.0802,0.0853,0.0806,0.081,0.0833,0.0919,0.0927,0.0935,0.0996,0.0975,0.0978,0.0981,0.0983,0.1122,0.1123,0,0,0,0,0,0,0.0593,0.0595,0.0748,0.0755,0.0682,0.0752,0.0765,0.0797,0.0852,0.0863,0.0833,0.0834,0.092,0.0929,0.0939,0.1022,0.0979,0.0983,0.0986,0.1121,0.1123,0.1124,0,0,0,0,0,0,0.0588,0.0606,0.0745,0.0682,0.07,0.0757,0.0791,0.0799,0.0831,0.0873,0.0882,0.0861,0.092,0.0933,0.0991,0.1024,0.0985,0.0989,0.112,0.1122,0.1123,0.1155,0,0,0,0,0,0,0.0582,0.0604,0.0619,0.0683,0.0705,0.0783,0.0792,0.0801,0.0847,0.0849,0.09,0.0909,0.0921,0.0985,0.0995,0.103,0.0992,0.1118,0.1121,0.1123,0.1152,0.1158,0.1162,0,0,0,0,0,0.0574,0.0592,0.0619,0.0637,0.0727,0.0784,0.0793,0.0828,0.0848,0.0858,0.0899,0.0909,0.1005,0.0989,0.1002,0.1038,0.1117,0.112,0.1123,0.115,0.1157,0.1162,0,0,0,0,0,0,0.0486,0.06,0.0629,0.0675,0.0731,0.0791,0.0811,0.0843,0.0883,0.0897,0.0928,0.094,0.1003,0.1016,0.0997,0.1082,0.1062,0.1067,0.1079,0.1085,0.1089,0.1088,0.0996,0,0,0,0,0,0.0483,0.0537,0.0627,0.0658,0.0698,0.0761,0.0789,0.0824,0.0875,0.0893,0.0931,0.0974,0.1019,0.1048,0.1082,0.1135,0.1145,0.1164,0.1168,0.1172,0.1179,0.1222,0.1231,0.1132,0.1132,0.1132,0,0,0.0453,0.0524,0.055,0.0645,0.0695,0.0755,0.0777,0.0836,0.0871,0.0901,0.0955,0.0996,0.1037,0.1091,0.112,0.1109,0.1205,0.1176,0.1179,0.1183,0.1225,0.1235,0.1244,0.1134,0.1134,0.1133,0,0,0.0433,0.0495,0.0544,0.0607,0.0706,0.0749,0.0776,0.0859,0.0881,0.0946,0.0976,0.1038,0.1102,0.1136,0.1163,0.1217,0.1228,0.1231,0.1259,0.13,0.1309,0.1316,0.1336,0.1345,0.1233,0.1233,0.1233,0,0.0391,0.0483,0.0556,0.0629,0.0684,0.0755,0.0815,0.0848,0.0929,0.0955,0.0966,0.1088,0.1122,0.1199,0.1218,0.123,0.1247,0.1234,0.1307,0.1314,0.1322,0.134,0.1349,0.1235,0.1235,0.1235,0.1234,0,0.0426,0.0504,0.0539,0.0664,0.0713,0.0781,0.0856,0.0895,0.0943,0.0985,0.107,0.1126,0.1196,0.1222,0.1242,0.1318,0.1312,0.1307,0.1291,0.1333,0.135,0.1359,0.1238,0.1237,0.1236,0.1236,0,0,0.0345,0.053,0.0548,0.0618,0.0752,0.0797,0.0855,0.0932,0.0975,0.1047,0.1108,0.1198,0.1239,0.1272,0.1312,0.1358,0.1425,0.136,0.1361,0.1377,0.1509,0.1386,0.1384,0.1438,0.144,0.1441,0.1497,0,0.0362,0.0491,0.058,0.0688,0.0766,0.085,0.0895,0.0963,0.1018,0.1084,0.1155,0.1234,0.1253,0.1308,0.1355,0.1418,0.1453,0.1409,0.1468,0.1469,0.1353,0.1392,0.1448,0.1504,0.1506,0.1508,0.1509,0,0.0391,0.048,0.0587,0.0732,0.0772,0.0838,0.0934,0.0985,0.1076,0.112,0.1207,0.1262,0.1362,0.1362,0.1479,0.1454,0.1483,0.1517,0.152,0.1401,0.1364,0.1455,0.1526,0.1525,0.1523,0.1522,0.1521,0,0.0321,0.0491,0.0571,0.0629,0.0785,0.0839,0.0916,0.1006,0.1054,0.1158,0.121,0.1316,0.1393,0.1454,0.1524,0.1514,0.1631,0.1617,0.1527,0.1518,0.1598,0.159,0.1679,0.1679,0.1679,0.1679,0.1679,0,0.0327,0.0401,0.0558,0.0612,0.0705,0.0819,0.0913,0.0982,0.1094,0.1157,0.1237,0.1299,0.1424,0.1498,0.154,0.156,0.1641,0.1537,0.1529,0.1609,0.1601,0.1604,0.1595,0.1681,0.1681,0.168,0.168,0,0.0268,0.0367,0.0469,0.0629,0.0686,0.0751,0.0929,0.0985,0.1088,0.1175,0.1214,0.1324,0.1411,0.15,0.1608,0.1571,0.1609,0.1589,0.1667,0.1661,0.1462,0.1454,0.1492,0.1488,0.1485,0.1483,0.148,0,0.0264,0.0309,0.046,0.0515,0.0608,0.0735,0.0814,0.0963,0.1027,0.1171,0.12,0.1317,0.1378,0.1427,0.152,0.1574,0.1558,0.1549,0.1505,0.1458,0.1446,0.1443,0.1439,0.1475,0.1474,0.1473,0.1473,0,0.0246,0.0286,0.0362,0.0468,0.0567,0.0661,0.08,0.0844,0.0994,0.11,0.116,0.1207,0.1291,0.1362,0.1412,0.1448,0.1543,0.1515,0.1522,0.1481,0.1437,0.1428,0.1429,0.1461,0.1463,0.1464,0.1465,0,0.0227,0.0249,0.0331,0.0428,0.052,0.0574,0.0659,0.0766,0.0849,0.1023,0.1042,0.1158,0.1277,0.1296,0.1345,0.1368,0.1348,0.1295,0.1313,0.1326,0.1246,0.1165,0.1103,0,0,0,0,0,0.0224,0.0234,0.0299,0.0384,0.0462,0.0521,0.064,0.0721,0.0877,0.0888,0.097,0.104,0.1107,0.1165,0.116,0.1267,0.1347,0.1251,0.1292,0.14,0.1413,0.1334,0,0,0,0,0,0,0.0215,0.0253,0.0273,0.0328,0.0379,0.0455,0.0521,0.0619,0.0646,0.08,0.0849,0.0959,0.1048,0.1107,0.1135,0.1156,0.1153,0.1337,0.1334,0.1392,0.1404,0.1414,0.1338,0,0,0,0,0]},{"header":{"parameterUnit":"m.s-1","parameterCategory":2,"la1":30.2991,"la2":30.254,"lo1":-89.0895,"lo2":-89.0444,"dy":0.0017,"dx":0.0017,"nx":28,"ny":28,"refTime":"2025-01-15T03:00:00:Z","depth":"4","parameterNumber":3,"parameterNumberName":"V-component_of_CURRENTS"},"data":[0,0,0,0,0,0,0,0,0,0,0,0,0,0,0,0,0,0,0,0,0,0,0,0,0,0,0,0,0,0,0,0,0,0,0,0,0,0,0,0,0,0,0,0,0,0,0,0,0,0,0,0,0,0,0,0,0,0,0.0516,0.0516,0,0.0527,0.0527,0.0528,0.055,0.055,0.0549,0.0549,0.0533,0.0533,0.0532,0,0,0,0,0,0,0,0,0,0,0,0,0,0.05,0.0501,0.0516,0.0516,0.0516,0.0526,0.0527,0.0528,0.055,0.055,0.0549,0.0549,0.0533,0.0533,0.0532,0,0,0,0,0,0,0,0,0,0,0,0,0,0.0514,0.0501,0.0516,0.0524,0.0524,0.0526,0.0527,0.0528,0.055,0.055,0.0549,0.0549,0.0533,0.0533,0.0532,0.053,0,0,0.053,0.053,0,0,0,0,0,0,0,0,0.0513,0.0515,0.0523,0.0523,0.0523,0.0532,0.0515,0.0526,0.055,0.0546,0.0549,0.0549,0.0527,0.0527,0.0537,0.053,0.0529,0.053,0.053,0.053,0.053,0,0,0,0,0,0,0,0.0512,0.0515,0.0526,0.0522,0.0523,0.0521,0.0523,0.0518,0.054,0.0546,0.0546,0.0539,0.0527,0.0538,0.0537,0.0529,0.053,0.053,0.053,0.0529,0.0536,0.0537,0,0,0,0,0,0,0.0501,0.0514,0.0525,0.0526,0.0512,0.0521,0.0524,0.0534,0.0541,0.0541,0.0539,0.054,0.0539,0.0537,0.0536,0.055,0.053,0.0529,0.0529,0.0536,0.0536,0.0537,0,0,0,0,0,0,0.0501,0.0503,0.0525,0.0514,0.0516,0.0521,0.0532,0.0534,0.0551,0.0535,0.0535,0.0553,0.0538,0.0537,0.0536,0.0548,0.0529,0.0529,0.0535,0.0536,0.0537,0.0567,0,0,0,0,0,0,0.0501,0.0503,0.0518,0.0514,0.0516,0.0536,0.0531,0.0534,0.0543,0.0545,0.0547,0.0545,0.0538,0.0537,0.0535,0.0547,0.0528,0.0534,0.0535,0.0536,0.0565,0.0568,0.0571,0,0,0,0,0,0.0501,0.0522,0.0519,0.052,0.0534,0.0536,0.0539,0.0544,0.0544,0.0558,0.0553,0.0545,0.0542,0.0537,0.0535,0.0547,0.0534,0.0535,0.0536,0.0563,0.0568,0.0571,0,0,0,0,0,0,0.0533,0.0525,0.0522,0.0544,0.0541,0.0538,0.0547,0.0549,0.0559,0.0558,0.0549,0.0547,0.0551,0.0545,0.0539,0.0552,0.0538,0.0539,0.0559,0.0563,0.0566,0.0569,0.0528,0,0,0,0,0,0.0542,0.0557,0.0542,0.0564,0.0555,0.0552,0.0557,0.0558,0.0557,0.0563,0.0563,0.0559,0.0555,0.0555,0.0551,0.0557,0.0535,0.0565,0.0568,0.057,0.0572,0.0545,0.0545,0.0541,0.0541,0.0541,0,0,0.0561,0.0559,0.0569,0.0571,0.0566,0.0567,0.0557,0.0562,0.0575,0.0556,0.0579,0.0569,0.0558,0.0565,0.0567,0.0562,0.056,0.0572,0.0574,0.0574,0.0546,0.0546,0.0547,0.0541,0.0541,0.0541,0,0,0.0599,0.0599,0.0615,0.0607,0.0595,0.0589,0.059,0.0587,0.0597,0.0609,0.0596,0.0592,0.0597,0.0589,0.0585,0.0602,0.0575,0.0605,0.0625,0.0599,0.0599,0.0598,0.0567,0.0564,0.0609,0.0609,0.0609,0,0.0619,0.0636,0.0623,0.0625,0.0617,0.0598,0.0603,0.0611,0.0616,0.0623,0.0621,0.0619,0.0609,0.0607,0.0614,0.0609,0.0587,0.0611,0.0602,0.0601,0.06,0.0569,0.0565,0.061,0.061,0.061,0.061,0,0.0655,0.0665,0.0668,0.0664,0.0661,0.066,0.0647,0.066,0.0662,0.0666,0.0671,0.0656,0.0655,0.0651,0.0639,0.0631,0.0614,0.0606,0.0591,0.0602,0.0569,0.0564,0.0613,0.0612,0.0612,0.0611,0,0,0.0696,0.0694,0.0695,0.0694,0.0674,0.0676,0.0689,0.0692,0.0706,0.0709,0.0724,0.0712,0.0701,0.0694,0.0674,0.0651,0.0624,0.0629,0.0627,0.0596,0.056,0.0532,0.0523,0.0612,0.0611,0.0611,0.0537,0,0.0721,0.074,0.073,0.0743,0.0739,0.072,0.0734,0.0739,0.0743,0.0756,0.0735,0.0742,0.0718,0.0717,0.069,0.0642,0.0613,0.0644,0.0556,0.0553,0.0524,0.0518,0.0609,0.0534,0.0533,0.0532,0.0531,0,0.0746,0.0753,0.0776,0.0771,0.0767,0.0779,0.0785,0.0796,0.08,0.0807,0.0802,0.0785,0.076,0.0737,0.0657,0.0677,0.0622,0.058,0.0576,0.0536,0.0516,0.052,0.0522,0.0523,0.0523,0.0524,0.0524,0,0.0769,0.0777,0.0802,0.0798,0.0798,0.0812,0.0812,0.0818,0.0838,0.0842,0.0853,0.0816,0.0806,0.0732,0.0651,0.0653,0.0553,0.0545,0.0464,0.0461,0.0495,0.0496,0.0482,0.0482,0.0482,0.0482,0.0483,0,0.0781,0.0794,0.082,0.0827,0.0854,0.0841,0.0871,0.0873,0.0888,0.0911,0.0882,0.0885,0.0805,0.0742,0.0657,0.0544,0.0557,0.0461,0.044,0.051,0.0514,0.0491,0.0493,0.048,0.048,0.0481,0.0481,0,0.0787,0.0809,0.0836,0.0857,0.0868,0.0887,0.0911,0.0935,0.094,0.0968,0.0974,0.0943,0.086,0.076,0.064,0.0559,0.0451,0.0406,0.0485,0.047,0.0372,0.0377,0.0307,0.0305,0.0304,0.0302,0.0301,0,0.0783,0.0806,0.0862,0.0892,0.0903,0.0932,0.0957,0.097,0.0996,0.0999,0.1014,0.0955,0.0914,0.072,0.0616,0.0441,0.0415,0.035,0.0361,0.0368,0.0354,0.0361,0.0367,0.0299,0.0299,0.0299,0.0298,0,0.0769,0.0812,0.0843,0.0907,0.095,0.0992,0.1023,0.1044,0.1058,0.1068,0.1037,0.0945,0.0848,0.0714,0.0578,0.0455,0.0387,0.0335,0.0338,0.0347,0.0358,0.0347,0.0355,0.0293,0.0294,0.0295,0.0295,0,0.0763,0.0795,0.0859,0.091,0.0972,0.1026,0.1041,0.1056,0.1075,0.1068,0.1058,0.0954,0.0905,0.072,0.0597,0.047,0.0436,0.0384,0.0383,0.0386,0.0431,0.0458,0.04,0,0,0,0,0,0.0746,0.0793,0.0847,0.0915,0.0979,0.102,0.1075,0.109,0.1102,0.1079,0.1065,0.0971,0.0787,0.0722,0.0589,0.0571,0.0417,0.0409,0.0357,0.0267,0.0272,0.0308,0,0,0,0,0,0,0.074,0.08,0.0841,0.0907,0.0956,0.1028,0.107,0.1086,0.1066,0.106,0.0971,0.0922,0.0755,0.0864,0.0583,0.0547,0.049,0.0331,0.0327,0.0264,0.0269,0.0273,0.0312,0,0,0,0,0]}]]